Погода в Тумнине

Погода в Тумнине : погода сейчас, прогноз погоды и архив. Всё, что Вы хотите узнать о погоде в Тумнине!

Поиск расширенной информации на нашем сайте:

Другие новости

Новости СМИ2

Главная страница сайта

Новости сайта

03.07.2017

Напоминаем, что на нашем специализированном сайте Метеоцентр.Азия вы можете получить высокодетализированные автоматические прогнозы погоды по пунктам России, СНГ и мира в авиационном формате (включающие направление и скорость ветра, видимость, явления погоды, количество и форму облачности, нижнюю и верхнюю границу облачности).


Погода в Тумнине - сегодня

Время (UTC), дата Ветер
(°,м/с) 
Видим.   Явления Облачность Т
(°С)
Тd
(°С)
f(%) Тe
(°С)
Pmin
(гПа)
dP
(гПа)
Po
(мм)
O2
(г/м3)
Тmin Tmax R s Состояние
почвы
18 15.04.18 тихо ()   20000 м    ясно 
-7.8 -8.8 93 -8  1007.8  -0.7  750  312           
00 16.04.18 160 (Ю) 20000 м    ясно 
+2.9 -7 48 +4  1007.4  -0.7  750  300           
03 16.04.18 250 (З) 2{18}  20000 м    1/0 средняя 
[Ac trans]
+12.5 -10.2 19 +13  1004.5  -2.6  748  289           
06 16.04.18 280 (З) 20000 м    1/0 средняя 
[Ac trans]
+13.6 -11.9 16 +14  1003.4  -1  747  288           
09 16.04.18 280 (З) 20000 м    ясно 
+7.9 -8.1 31 +9  1004.4  0.8  748  294    +13.6       
12 16.04.18 тихо ()   20000 м    ясно 
-1.1 -6.1 69 -1  1006.7  750  304           
15 16.04.18 тихо ()   20000 м    ясно 
-3.4 -6.4 80 -3  1007.4  0.6  750  307           
18 16.04.18 тихо ()   20000 м    ясно 
-4.1 -6.3 85 -4  1008  0.6  750  308           
00 17.04.18 120 (ЮВ) 20000 м    3/0 средняя 
[Ac trans]
+8.6 -4 41 +9  1009  -0.3  752  294           
03 17.04.18 260 (З) 20000 м    8/0 средняя, верхняя 
[Ac trans|Ci fib]
+17.4 -7.8 17 +17  1007.5  -1.3  750  285           
06 17.04.18 210 (ЮЗ) 3{10}  20000 м    6/0 средняя, верхняя 
[Ac trans|Ci]
+20.4 -8.3 14 +20  1004.6  -2.7  748  281           
12 17.04.18 тихо ()   20000 м    3/0 средняя 
[Ac trans]
+2.1 -3.1 68 +2  1006.4  2.1  749  300           
15 17.04.18 250 (З) 20000 м    ясно 
-0.3 -4 76 1007.4  750  303           
18 17.04.18 тихо ()   20000 м    ясно 
-2 -4.3 84 -2  1007.7  0.2  750  305           
00 18.04.18 тихо ()   20000 м    10/0 средняя 
[Ac As]
+3.1 -1.9 70 +3  1007.7  -0.2  750  299           
03 18.04.18 тихо ()   20000 м    10/0 средняя 
[Ac As]
+6.5 -1.7 56 +7  1007  -0.5  750  295           
06 18.04.18 050 (СВ) 20000 м    8/0 средняя 
[Ac trans]
+8.8 +0 54 +10  1006.7  -0.2  750  293           
12 18.04.18 тихо ()   20000 м  {дождь}  10/0 средняя 
[Ac As]
+3.1 +2.3 94 +3  1010  1.7  752  299           
15 18.04.18 210 (ЮЗ) 0500 м  туман  ?/?  
+2.6 +1.4 92 +3  1010.8  0.8  753  300           
18 18.04.18 210 (ЮЗ) 0500 м  туман  ?/?  
+2 +1 93 +1  1011.6  0.7  753  301           
00 19.04.18 220 (ЮЗ) 0500 м  туман{дождь}  ?/?  
+3.7 +2.6 92 +3  1012.5  0.7  754  299           
03 19.04.18 200 (Ю) 20000 м  {туман}  10/10 1000 м 
[Sc]
+5.2 +3.3 88 +6  1012.3  -0.2  754  298           
06 19.04.18 210 (ЮЗ) 20000 м  {туман}  10/10 1000 м 
[Sc]
+7.5 +3.4 75 +7  1010.7  -1.5  753  295           
12 19.04.18 240 (ЮЗ) 20000 м    10/6 1000 м средняя 
[Sc|Ac trans]
+3.1 +0.3 82 +3  1011.1  0.9  753  300           
15 19.04.18 тихо ()   20000 м  {дождь}  8/3 1000 м средняя 
[Sc|Ac trans]
+0.7 -0.2 94 +1  1011  -0.2  753  303           
Время (UTC), дата Ветер
(°,м/с) 
Видим.   Явления Облачность Т
(°С)
Тd
(°С)
f(%) Тe
(°С)
Pmin
(гПа)
dP
(гПа)
Po
(мм)
O2
(г/м3)
Тmin Tmax R s Состояние
почвы

Для получения пояснительной информации подведите курсор к названию столбца.

ПОГОДА в Тумнине - архив

Всё, что Вы хотите узнать о погоде в Тумнине - удобно и подробно!

Выберите нужную дату (начиная с 1 января 2015* года) и нажмите кнопку "Найти".
Будут отображены архивные сводки погоды по пункту Тумнин, начиная с указанной даты.


Отображать данные в формате CSV (для использования в таблицах Excel)


Внимание! Наш архив погоды предназначен исключительно для личного некоммерческого использования в познавательных целях. Если Вам необходимы официальные справки о состоянии погоды (для производственных, юридических, коммерческих и т.п. целей), обращайтесь в органы Росгидромета.

*Примечание: данная дата относится к архиву по метеостанциям СССР (Россия, СНГ, Балтия).
Архив по метеостанциям Зарубежной Европы и Азии (кроме Китая) хранится 10 дней, по другим регионам земного шара (Китай, Африка, Америка, Австралия, Океания) - 1 день.

Тумнин - район местоположения метеостанции


Название, широта, долгота, высота метеостанции:
Тумнин 49.7°ш. 140.1°д. 58 м над ур. моря [Российская Федерация]

Дополнительная информация

В oтличие oт бoльшинства пoгoдных сайтoв мы публикуем пoдрoбную метеoинфoрмацию в детальнoм прoфессиoнальнoм фoрмате.

Характеристики температуры и влажнoсти вoздуха измеряются на высoте 2 м в тени вдали oт зданий и деревьев.
Скoрoсть ветра измеряется на высoте 10 м (на урoвне рoста челoвека скoрoсть ветра ниже в 1.5-2 раза). Если метеoстанция нахoдится в гoрoде или в лесу, тo скoрoсть ветра занижена на 2-4 м/с пo сравнению с oткрытым местoм. Скoрoсть ветра над акватoриями крупных рек и oзёр, а также на вершинах хoлмoв на 2-5 м/с выше, чем в oбычных услoвиях.
Атмoсфернoе давление в разных тoчках местнoсти мoжет значительнo oтличаться oт давления на метеoстанции, в зависимoсти oт услoвий рельефа (при пoдъёме на 10 м давление пoнижается примернo на 1 мм рт.ст.).